Regional Weather Roundup
Issued by NWS Kansas City/Pleasant Hill, MO

Home | Current Version | Previous Version | Graphics & Text | Print | Product List | Glossary Off
Versions: 1 2 3 4 5 6 7 8 9 10 11 12 13 14 15 16 17 18 19 20 21 22 23 24 25 26 27 28 29 30 31 32 33 34 35 36 37 38 39 40 41 42 43 44 45 46 47 48 49 50

000
ASUS43 KEAX 032210
RWREAX

WEATHER ROUNDUP FOR EASTERN KANSAS AND NORTHWEST MISSOURI
NATIONAL WEATHER SERVICE KANSAS CITY/PLEASANT HILL MO
500 PM CDT MON AUG 03 2015

KSZ040-057-103>105-MOZ028-029-037-043-032300-
...KANSAS CITY METROPOLITAN AREA...

CITY           SKY/WX    TMP DP  RH WIND       PRES   REMARKS
K.C. INTL      MOSUNNY   85  68  56 E10       29.92F
K.C. DOWNTOWN  SUNNY     86  69  56 E9        29.90F HX  90
LEES SUMMIT    SUNNY     87  71  58 E10       29.92F HX  93
OLATHE - IXD   MOSUNNY   93  69  45 W3        29.91F HX  98
OLATHE - OJC   MOSUNNY   91  73  55 E6        29.90F HX  99
LAWRENCE       MOSUNNY   93  69  45 S6        29.89F HX  98

$$

MOZ001>008-011>017-020>025-030>033-038>040-044>046-053-054-032300-
...NORTHERN AND CENTRAL MISSOURI...

CITY           SKY/WX    TMP DP  RH WIND       PRES   REMARKS
ST. JOSEPH     MOSUNNY   83  71  67 SE8       29.91F
WARRENSBURG    SUNNY     86  68  54 E7        29.92F
WHITEMAN AFB   MOSUNNY   88  70  55 VRB3      29.91F HX  93
CLINTON        NOT AVBL
SEDALIA        SUNNY     87  68  52 CALM      29.94F HX  90
WARSAW         NOT AVBL
CHILLICOTHE      N/A     82  67  60 VRB3      29.94F
KIRKSVILLE     MOSUNNY   77  64  64 W7        29.95F

$$

MOZ041-047>049-056>058-063>065-088>090-097-032300-
...EASTERN AND SOUTHERN MISSOURI...

CITY           SKY/WX    TMP DP  RH WIND       PRES   REMARKS
ST. LOUIS INTL PTSUNNY   90  68  48 N12       29.91F HX  94
SPIRIT OF STL  PTSUNNY   89  68  49 W8        29.89F HX  93
COLUMBIA       SUNNY     87  68  52 W6        29.93F HX  90
JEFFERSON CITY SUNNY     87  66  49 VRB3      29.91F
ROLLA          MOSUNNY   88  68  51 NW10      29.94F HX  91
OSAGE BEACH    MOSUNNY   90  72  55 NE8       29.94F HX  96
SPRINGFIELD    MOSUNNY   91  64  40 SW8       29.95F HX  92
BRANSON        PTSUNNY   93  66  40 NW6       29.98S HX  96
JOPLIN         MOSUNNY   94  64  37 SW7       29.94S HX  95
WEST PLAINS    MOSUNNY   91  65  41 NW7       29.97F HX  93

$$

IAZ060-094-KSZ022-034>040-054-083-096-NEZ052-066-093-032300-
...KANSAS...SOUTHEAST NEBRASKA AND IOWA...

CITY           SKY/WX    TMP DP  RH WIND       PRES   REMARKS
TOPEKA         SUNNY     93  68  43 S8        29.89S HX  97
MANHATTAN      MOSUNNY   94  69  44 SE8       29.88F HX  99
EMPORIA        MOSUNNY   92  66  42 SW5       29.91F HX  94
CHANUTE        MOSUNNY   93  66  40 S9        29.91F HX  96
WICHITA        PTSUNNY   92  71  50 SE13      29.91F HX  98
OMAHA          PTSUNNY   83  64  52 NE5       29.95F
LINCOLN        MOSUNNY   84  65  52 E9        29.95F
FALLS CITY     PTSUNNY   82  73  74 E7        29.92S
LAMONI         LGT RAIN  82  64  54 VRB3      29.95S
DES MOINES     MOSUNNY   84  57  39 NW8       29.93F

$$




USA.gov is the U.S. government's official web portal to all federal, state and local government web resources and services.